KE8AFF-13 Weather Reports


time (UTC)temp
C
wind
direction
speed
KPH
gust
KPH
rain 1hr
cm
rain 24hr
cm
rain mn
cm
humidity
%
barometer
mb
20260506235351 11 218 0.0 3.2 0.00 0.74 0.74 63 1012.9
20260506234846 11 231 4.8 8.0 0.00 0.74 0.74 62 1012.7
20260506234344 11 221 1.6 4.8 0.00 0.74 0.74 62 1013.1
20260506233842 11 226 3.2 4.8 0.00 0.74 0.74 61 1012.9
20260506233338 11 236 3.2 8.0 0.00 0.74 0.74 61 1012.7
20260506232835 11 225 1.6 9.7 0.00 0.74 0.74 61 1013.0
20260506232330 11 229 4.8 8.0 0.00 0.74 0.74 61 1013.1
20260506231827 11 241 4.8 8.0 0.00 0.74 0.74 60 1012.7
20260506231325 11 232 1.6 3.2 0.00 0.74 0.74 60 1013.5
20260506230822 11 221 4.8 11.3 0.00 0.74 0.74 59 1013.6
20260506230319 11 218 3.2 9.7 0.00 0.74 0.74 59 1013.2
20260506225815 11 245 4.8 12.9 0.00 0.74 0.74 58 1013.1
20260506225312 11 266 8.0 12.9 0.00 0.74 0.74 58 1013.2
20260506224809 11 250 6.4 9.7 0.00 0.74 0.74 58 1013.1
20260506224306 12 234 3.2 9.7 0.00 0.74 0.74 58 1013.1
20260506223803 12 244 3.2 3.2 0.00 0.74 0.74 59 1012.8
20260506223257 12 239 3.2 11.3 0.00 0.74 0.74 58 1012.7
20260506222755 12 232 4.8 4.8 0.00 0.74 0.74 58 1013.1
20260506222250 12 216 1.6 4.8 0.00 0.74 0.74 57 1013.0
20260506221748 12 217 1.6 11.3 0.00 0.74 0.74 55 1013.1
20260506221246 12 215 3.2 4.8 0.00 0.74 0.74 57 1013.1
20260506220743 12 237 1.6 8.0 0.00 0.74 0.74 56 1013.0
20260506220238 12 297 3.2 9.7 0.00 0.74 0.74 57 1013.1
20260506215735 12 229 1.6 9.7 0.00 0.74 0.74 57 1013.0
20260506215230 12 321 3.2 11.3 0.00 0.74 0.74 56 1012.5
20260506214722 12 238 1.6 8.0 0.00 0.74 0.74 58 1012.5
20260506214219 12 290 8.0 9.7 0.00 0.74 0.74 56 1012.5
20260506213717 12 338 4.8 9.7 0.00 0.74 0.74 57 1012.6
20260506213214 12 215 4.8 9.7 0.00 0.74 0.74 55 1012.7
20260506212711 12 224 3.2 12.9 0.00 0.74 0.74 55 1012.5
20260506212206 12 239 1.6 4.8 0.00 0.74 0.74 56 1012.5
20260506211702 12 239 4.8 8.0 0.00 0.74 0.74 56 1012.5
20260506211158 12 248 4.8 8.0 0.00 0.74 0.74 57 1012.4
20260506210655 12 259 6.4 9.7 0.00 0.74 0.74 57 1012.3
20260506210152 12 29 3.2 4.8 0.00 0.74 0.74 57 1012.4
20260506205649 11 211 1.6 4.8 0.00 0.74 0.74 57 1012.1
20260506205144 12 337 11.3 12.9 0.00 0.74 0.74 55 1012.2
20260506204643 12 333 6.4 8.0 0.00 0.74 0.74 56 1012.3
20260506204139 11 22 6.4 9.7 0.00 0.74 0.74 55 1012.1
20260506203637 11 346 6.4 14.5 0.00 0.74 0.74 56 1012.2
20260506203133 12 318 8.0 16.1 0.00 0.74 0.74 55 1012.3
20260506202632 12 354 6.4 12.9 0.00 0.74 0.74 53 1012.3
20260506202128 12 64 4.8 16.1 0.00 0.74 0.74 55 1012.2
20260506201625 12 327 4.8 14.5 0.00 0.74 0.74 55 1012.1
20260506201121 12 218 1.6 12.9 0.00 0.74 0.74 55 1012.6
20260506200618 12 322 4.8 11.3 0.00 0.74 0.74 54 1012.4
20260506200115 12 218 0.0 8.0 0.00 0.74 0.74 56 1012.6
20260506195611 12 349 11.3 22.5 0.00 0.74 0.74 54 1012.4
20260506195108 12 332 1.6 16.1 0.00 0.74 0.74 56 1012.3
20260506194605 12 345 9.7 14.5 0.00 0.74 0.74 55 1012.3
20260506194101 12 343 8.0 20.9 0.00 0.74 0.74 56 1012.4
20260506193559 12 321 9.7 14.5 0.00 0.74 0.74 54 1012.3
20260506193056 12 312 6.4 8.0 0.00 0.74 0.74 54 1012.1
20260506192553 12 257 3.2 8.0 0.00 0.74 0.74 55 1012.1
20260506192049 12 336 8.0 12.9 0.00 0.74 0.74 55 1012.2
20260506191546 12 58 9.7 17.7 0.00 0.74 0.74 54 1012.3
20260506191042 12 319 9.7 9.7 0.00 0.74 0.74 53 1012.3
20260506190539 12 62 9.7 16.1 0.00 0.74 0.74 53 1012.2
20260506190036 12 267 3.2 8.0 0.00 0.74 0.74 55 1012.0
20260506185533 12 219 1.6 8.0 0.00 0.74 0.74 55 1012.1
20260506185029 12 301 6.4 11.3 0.00 0.74 0.74 58 1011.9
20260506184527 12 235 1.6 4.8 0.00 0.74 0.74 58 1012.1
20260506184018 12 307 8.0 12.9 0.00 0.74 0.74 56 1012.0
20260506183514 12 238 1.6 8.0 0.00 0.74 0.74 56 1012.1
20260506183011 12 228 6.4 11.3 0.00 0.74 0.74 57 1012.3
20260506182508 12 200 4.8 12.9 0.00 0.74 0.74 55 1012.2
20260506182004 12 299 3.2 11.3 0.00 0.74 0.74 57 1012.5
20260506181502 12 353 6.4 14.5 0.00 0.74 0.74 58 1012.5
20260506180959 12 345 6.4 17.7 0.00 0.74 0.74 57 1012.5
20260506180456 12 214 4.8 12.9 0.00 0.74 0.74 58 1012.2
20260506175953 12 326 11.3 14.5 0.00 0.74 0.74 57 1012.0
20260506175450 12 355 12.9 20.9 0.00 0.74 0.74 58 1012.0
20260506174946 12 357 6.4 12.9 0.00 0.74 0.74 56 1011.9
20260506174444 13 282 8.0 14.5 0.00 0.74 0.74 59 1012.3
20260506173941 12 303 8.0 12.9 0.00 0.74 0.74 58 1012.2
20260506173438 13 357 11.3 14.5 0.00 0.74 0.74 57 1012.2
20260506172935 13 300 14.5 17.7 0.00 0.74 0.74 56 1012.5
20260506172432 13 231 4.8 12.9 0.00 0.74 0.74 56 1012.6
20260506171928 13 355 16.1 17.7 0.00 0.74 0.74 55 1012.4
20260506171426 12 338 12.9 14.5 0.00 0.74 0.74 56 1012.4
20260506170918 12 348 11.3 17.7 0.00 0.74 0.74 56 1012.1
20260506170414 12 15 11.3 22.5 0.00 0.74 0.74 58 1012.2
20260506165913 12 275 11.3 17.7 0.00 0.74 0.74 60 1012.2
20260506165410 12 237 4.8 17.7 0.00 0.74 0.74 63 1012.3
20260506164906 12 329 11.3 12.9 0.00 0.74 0.74 63 1012.0
20260506164403 12 14 14.5 20.9 0.00 0.74 0.74 60 1012.1
20260506163902 12 347 8.0 20.9 0.00 0.74 0.74 64 1012.1
20260506163356 12 343 6.4 14.5 0.00 0.74 0.74 65 1012.2
20260506162851 12 327 6.4 16.1 0.00 0.74 0.74 62 1012.0
20260506162349 12 27 6.4 14.5 0.00 0.74 0.74 67 1012.2
20260506161847 12 255 6.4 14.5 0.00 0.74 0.74 64 1012.5
20260506161343 12 221 1.6 8.0 0.00 0.74 0.74 67 1012.5
20260506160835 12 98 3.2 4.8 0.00 0.74 0.74 69 1012.6
20260506160332 12 332 9.7 12.9 0.00 0.74 0.74 68 1012.6
20260506155831 11 351 6.4 14.5 0.00 0.74 0.74 69 1012.5
20260506155326 11 284 8.0 14.5 0.00 0.74 0.74 68 1012.2
20260506153439 11 63 3.2 4.8 0.00 0.74 0.74 71 1012.1
20260506152937 11 14 8.0 20.9 0.00 0.74 0.74 72 1011.8
20260506152433 11 12 6.4 11.3 0.00 0.74 0.74 71 1011.9
20260506151932 11 339 3.2 9.7 0.00 0.74 0.74 73 1011.9
20260506151429 11 309 11.3 14.5 0.00 0.74 0.74 73 1012.3
20260506150927 10 356 6.4 11.3 0.00 0.74 0.74 73 1012.0
20260506150422 11 345 11.3 14.5 0.00 0.74 0.74 72 1011.8
20260506145920 11 210 8.0 16.1 0.00 0.74 0.74 73 1011.9
20260506145416 10 289 8.0 12.9 0.00 0.74 0.74 75 1011.7
20260506144913 10 339 6.4 12.9 0.00 0.74 0.74 74 1011.7
20260506144409 10 355 8.0 16.1 0.00 0.74 0.74 76 1011.9
20260506143908 10 330 6.4 8.0 0.00 0.74 0.74 76 1011.8
20260506143404 10 331 8.0 16.1 0.00 0.74 0.74 76 1011.6
20260506142903 10 5 4.8 12.9 0.00 0.74 0.74 78 1011.6
20260506142401 10 218 4.8 9.7 0.00 0.74 0.74 78 1011.7
20260506141858 9 270 4.8 20.9 0.00 0.74 0.74 79 1011.3
20260506141356 9 346 11.3 16.1 0.00 0.74 0.74 78 1011.4
20260506140854 9 338 11.3 14.5 0.00 0.74 0.74 79 1011.2
20260506140351 9 326 9.7 11.3 0.00 0.74 0.74 79 1011.3
20260506135848 8 314 4.8 9.7 0.00 0.74 0.74 81 1011.2
20260506135345 8 278 4.8 9.7 0.00 0.74 0.74 81 1011.2
20260506134841 8 337 12.9 16.1 0.00 0.74 0.74 82 1011.2
20260506134337 8 349 8.0 12.9 0.00 0.74 0.74 83 1011.5
20260506133834 8 337 6.4 14.5 0.00 0.74 0.74 85 1011.6
20260506133331 8 346 6.4 8.0 0.00 0.74 0.74 85 1011.6
20260506132828 7 336 6.4 8.0 0.00 0.74 0.74 86 1011.6
20260506132325 7 287 6.4 8.0 0.00 0.74 0.74 87 1011.5
20260506131823 7 309 4.8 9.7 0.00 0.74 0.74 88 1011.5
20260506131319 7 237 3.2 4.8 0.00 0.74 0.74 88 1011.4
20260506130816 7 310 3.2 8.0 0.00 0.74 0.74 89 1011.2
20260506130312 7 127 1.6 8.0 0.00 0.74 0.74 89 1011.1
20260506125811 7 349 9.7 11.3 0.00 0.74 0.74 89 1010.7
20260506125309 7 245 3.2 8.0 0.00 0.74 0.74 90 1010.9
20260506124807 7 263 4.8 8.0 0.00 0.74 0.74 90 1011.1
20260506124303 7 343 6.4 11.3 0.00 0.74 0.74 91 1010.9
20260506123801 7 331 4.8 8.0 0.00 0.74 0.74 91 1010.8
20260506123300 7 275 3.2 8.0 0.00 0.74 0.74 92 1010.5
20260506122756 6 280 3.2 9.7 0.00 0.74 0.74 92 1010.7
20260506122253 6 334 9.7 14.5 0.00 0.74 0.74 93 1010.5
20260506121751 6 224 4.8 9.7 0.00 0.74 0.74 93 1010.7
20260506121248 6 235 3.2 9.7 0.00 0.74 0.74 93 1010.3
20260506120745 6 266 4.8 11.3 0.00 0.74 0.74 93 1010.3
20260506120243 6 336 8.0 9.7 0.00 0.74 0.74 94 1010.0
20260506115740 6 162 3.2 11.3 0.00 0.74 0.74 93 1010.0
20260506115238 6 251 4.8 12.9 0.00 0.74 0.74 93 1009.8
20260506114736 6 347 8.0 14.5 0.00 0.74 0.74 93 1009.7
20260506114233 6 310 6.4 9.7 0.00 0.74 0.74 93 1009.6
20260506113732 6 286 4.8 9.7 0.00 0.74 0.74 94 1009.3
20260506113229 6 331 8.0 11.3 0.00 0.74 0.74 94 1009.5
20260506112725 6 313 3.2 9.7 0.00 0.74 0.74 95 1009.5
20260506112223 5 264 4.8 9.7 0.00 0.74 0.74 95 1009.2
20260506111720 5 287 4.8 8.0 0.00 0.74 0.74 96 1009.3
20260506111218 5 345 6.4 8.0 0.00 0.74 0.74 97 1009.3
20260506110715 5 305 8.0 9.7 0.00 0.74 0.74 98 1009.4
20260506110213 5 339 9.7 11.3 0.00 0.74 0.74 99 1009.6
20260506105709 5 349 6.4 8.0 0.00 0.74 0.74 99 1010.0
20260506105206 5 315 4.8 9.7 0.00 0.74 0.74 99 1009.8
20260506104704 5 336 6.4 11.3 0.00 0.74 0.74 99 1009.3
20260506104201 5 142 1.6 8.0 0.00 0.74 0.74 99 1008.8
20260506103658 5 292 4.8 9.7 0.00 0.74 0.74 99 1008.5
20260506103155 5 344 9.7 12.9 0.00 0.74 0.74 99 1008.6
20260506102653 5 341 6.4 9.7 0.00 0.74 0.74 99 1009.0
20260506102150 5 336 9.7 12.9 0.00 0.74 0.74 99 1009.0
20260506101647 5 9 8.0 11.3 0.00 0.74 0.74 99 1009.0
20260506101144 5 326 8.0 11.3 0.00 0.74 0.74 99 1008.7
20260506100642 5 348 14.5 14.5 0.00 0.74 0.74 99 1008.4
20260506100140 6 209 6.4 16.1 0.00 0.74 0.74 99 1008.6
20260506095639 6 355 8.0 17.7 0.00 0.74 0.74 99 1008.5
20260506095134 6 334 11.3 17.7 0.00 0.74 0.74 99 1008.1
20260506094632 7 342 9.7 14.5 0.00 0.74 0.74 99 1008.1
20260506094130 7 323 4.8 14.5 0.00 0.74 0.74 99 1008.3
20260506093628 7 345 8.0 12.9 0.00 0.74 0.74 99 1008.3
20260506093125 7 348 4.8 11.3 0.00 0.74 0.74 99 1008.2
20260506092623 7 313 8.0 11.3 0.00 0.74 0.74 99 1007.8
20260506092120 7 8 4.8 12.9 0.00 0.74 0.74 99 1007.7
20260506091618 7 315 4.8 4.8 0.00 0.74 0.74 99 1007.4
20260506091115 6 286 3.2 8.0 0.00 0.74 0.74 99 1007.2
20260506090613 6 36 8.0 12.9 0.05 0.74 0.74 99 1007.6
20260506090109 6 12 8.0 11.3 0.05 0.74 0.74 99 1007.4
20260506085606 6 348 8.0 11.3 0.00 0.74 0.74 99 1007.9
20260506085102 6 320 8.0 14.5 0.00 0.74 0.74 99 1008.2
20260506084559 6 12 12.9 14.5 0.05 0.74 0.74 99 1008.5
20260506084055 6 333 11.3 12.9 0.05 0.71 0.71 99 1008.4
20260506083553 6 1 8.0 11.3 0.13 0.71 0.71 99 1008.4
20260506083050 6 104 4.8 12.9 0.05 0.71 0.71 99 1008.4
20260506082546 7 325 4.8 8.0 0.00 0.71 0.71 99 1008.3
20260506082042 6 123 4.8 14.5 0.00 0.71 0.71 99 1008.3
20260506081541 6 48 9.7 12.9 0.00 0.71 0.71 99 1008.2
20260506081038 6 6 9.7 16.1 0.00 0.71 0.71 99 1007.9
20260506080535 7 328 3.2 11.3 0.00 0.71 0.71 99 1008.0
20260506073519 6 342 9.7 20.9 0.13 0.69 0.69 99 1007.9
20260506073016 7 327 8.0 12.9 0.05 0.69 0.69 99 1007.9
20260506072513 7 343 9.7 17.7 0.13 0.66 0.66 99 1008.1
20260506072011 7 351 8.0 11.3 0.23 0.66 0.66 99 1008.2
20260506071508 7 355 3.2 12.9 0.23 0.66 0.66 99 1008.1
20260506071005 7 323 6.4 12.9 0.23 0.61 0.61 99 1008.3
20260506070502 7 16 11.3 17.7 0.30 0.61 0.61 99 1008.4
20260506062440 7 102 6.4 9.7 0.23 0.48 0.48 99 1007.8
20260506061936 7 332 3.2 4.8 0.30 0.46 0.46 99 1007.8
20260506061432 7 41 4.8 11.3 0.36 0.46 0.46 99 1007.9
20260506060931 7 297 4.8 9.7 0.36 0.43 0.43 99 1007.7
20260506060428 7 359 9.7 9.7 0.36 0.38 0.38 99 1007.8
20260506051400 7 45 8.0 12.9 0.05 0.13 0.13 99 1007.8
20260506050857 7 229 8.0 14.5 0.05 0.13 0.13 99 1007.9
20260506050355 7 23 3.2 11.3 0.13 0.10 0.10 99 1008.1
20260506044845 7 349 8.0 14.5 0.05 0.08 0.08 99 1008.5
20260506044343 7 333 11.3 16.1 0.00 0.05 0.05 99 1008.4
20260506043840 7 340 8.0 14.5 0.05 0.05 0.05 99 1008.3
20260506043337 7 357 6.4 11.3 0.05 0.05 0.05 99 1008.2
20260506042835 7 351 4.8 9.7 0.05 0.05 0.05 99 1008.1
20260506042334 7 305 6.4 9.7 0.13 0.05 0.05 99 1007.8
20260506041833 7 358 6.4 11.3 0.18 0.05 0.05 99 1007.8
20260506041329 7 357 6.4 9.7 0.13 0.03 0.03 99 1007.6
20260506040826 7 25 4.8 8.0 0.05 0.00 0.00 99 1007.8
20260506040324 7 247 1.6 8.0 0.13 0.00 0.00 99 1007.5
20260506035820 7 22 4.8 9.7 0.05 1.98 1.98 99 1007.6
20260506035317 7 20 4.8 4.8 0.05 1.98 1.98 99 1007.7
20260506034814 7 224 1.6 8.0 0.18 1.98 1.98 99 1007.8
20260506034312 7 20 11.3 12.9 0.23 1.98 1.98 99 1007.7
20260506033809 7 82 4.8 11.3 0.18 1.96 1.96 99 1007.8
20260506033306 7 335 4.8 11.3 0.05 1.93 1.93 99 1008.0
20260506032802 7 353 4.8 14.5 0.05 1.93 1.93 99 1007.9
20260506032259 7 338 4.8 9.7 0.13 1.93 1.93 99 1008.1
20260506031755 8 47 9.7 11.3 0.18 1.91 1.91 99 1008.0
20260506031253 8 326 3.2 4.8 0.18 1.88 1.88 99 1008.1
20260506030751 8 317 6.4 11.3 0.23 1.88 1.88 99 1008.5
20260506030249 8 338 6.4 11.3 0.30 1.85 1.85 99 1008.7
20260506025745 8 16 6.4 11.3 0.30 1.83 1.83 99 1008.5
20260506025242 8 341 4.8 4.8 0.18 1.80 1.80 99 1008.6
20260506024739 8 230 4.8 12.9 0.13 1.78 1.78 99 1008.6
20260506024235 8 338 4.8 9.7 0.13 1.78 1.78 99 1008.8
20260506023731 8 348 8.0 12.9 0.18 1.78 1.78 99 1008.7
20260506023229 8 351 11.3 16.1 0.13 1.75 1.75 99 1009.0
20260506022725 8 346 8.0 11.3 0.13 1.75 1.75 99 1008.9
20260506022223 8 330 6.4 9.7 0.18 1.73 1.73 99 1008.8
20260506021721 8 356 8.0 9.7 0.30 1.73 1.73 99 1009.1
20260506021218 8 343 14.5 17.7 0.23 1.68 1.68 99 1008.6
20260506020714 8 340 9.7 22.5 0.30 1.65 1.65 99 1008.9
20260506020213 8 6 11.3 17.7 0.30 1.63 1.63 99 1008.8
20260506015710 9 1 8.0 12.9 0.43 1.60 1.60 99 1008.6
20260506015207 9 279 1.6 4.8 0.43 1.57 1.57 99 1008.7
20260506014704 9 10 4.8 14.5 0.30 1.55 1.55 99 1008.3
20260506014200 9 329 8.0 11.3 0.30 1.50 1.50 99 1008.3
20260506013658 9 59 6.4 11.3 0.30 1.50 1.50 99 1008.0
20260506013155 9 333 6.4 9.7 0.23 1.45 1.45 99 1008.2
20260506012651 9 329 9.7 12.9 0.18 1.42 1.42 99 1008.0
20260506012148 9 305 4.8 9.7 0.18 1.42 1.42 99 1007.8
20260506011646 9 17 9.7 12.9 0.18 1.40 1.40 99 1008.0
20260506011141 9 285 9.7 12.9 0.18 1.40 1.40 99 1007.7
20260506010640 9 355 6.4 9.7 0.18 1.37 1.37 99 1007.9
20260506010137 10 235 3.2 4.8 0.23 1.37 1.37 99 1007.9
20260506005634 9 207 1.6 3.2 0.23 1.35 1.35 99 1007.9
20260506005131 10 62 4.8 14.5 0.23 1.32 1.32 99 1007.5
20260506004627 10 355 6.4 11.3 0.30 1.30 1.30 99 1007.8
20260506004124 10 304 4.8 9.7 0.43 1.27 1.27 99 1007.9
20260506003621 10 334 4.8 14.5 0.79 1.22 1.22 99 1007.7
20260506003117 10 14 8.0 16.1 0.89 1.17 1.17 99 1007.6
20260506002613 10 341 12.9 22.5 0.71 1.09 1.09 99 1007.5
20260506002109 10 10 16.1 17.7 0.53 1.02 1.02 99 1007.6
20260506001605 10 254 6.4 17.7 0.61 0.99 0.99 99 1007.4
20260506001102 10 342 14.5 22.5 0.48 0.91 0.91 99 1007.4
20260506000600 11 320 11.3 16.1 0.48 0.89 0.89 99 1007.3
20260506000057 11 329 12.9 14.5 0.43 0.84 0.84 99 1007.2